Location: Armstrong
(40.9123°N, 82.0110°W)
Time: 08:16:47
(UTC+00:00)

SMAP - Pass Details

Date: 29 October 2020
Orbit: 681 x 683 km, 98.1° (Epoch: 30 November)

Event Time Altitude Azimuth Distance (km) Brightness Sun altitude
Rises 22:54:34 0° 167° (SSE) 3,030 6.4 -5.8°
Reaches altitude 10° 22:56:47 10° 168° (SSE) 2,119 5.6 -6.3°
Maximum altitude 23:01:26 85° 256° (WSW) 691 3.2 -7.1°
Drops below altitude 10° 23:06:07 10° 346° (NNW) 2,135 5.7 -8.0°
Sets 23:08:22 0° 347° (NNW) 3,054 6.4 -8.4°
